Location: Boussac
(44.2782°N, 2.3665°E)
Time: 10:54:15
(UTC+00:00)

Okean 1 - Pass Details

Date: 15 May 2026
Orbit: 458 x 474 km, 82.5° (Epoch: 8 June)

Event Time Altitude Azimuth Distance (km) Brightness Sun altitude
Exits shadow 21:25:43 50° 98° (E) 607 3.2 -18.9°
Maximum altitude 21:25:46 50° 95° (E) 606 3.2 -19.0°
Drops below altitude 10° 21:29:16 10° 19° (NNE) 1,649 6.2 -19.3°
Sets 21:31:24 0° 14° (NNE) 2,535 7.3 -19.5°
